UNT22 EGKK-EGPH

Flight info

Callsign UNT22
Flight time N/A
Altitude 34000
Route LAM6M LAM L10 BPK UN601 RIBEL DCT INPIP INPIP1E
Aircraft B738/M-SDE2E3FGHIRWXY/LB1

Departure

Time 2026-04-17 11:13
Airport London Gatwick Airport (EGKK)

Arrival

Time N/A
Airport Edinburgh Airport (EGPH)
Time Latitude Longitude Altitude Speed Heading
2026-04-17 10:36 51.16063 -0.18027 203 ft 0 kts 78°
2026-04-17 10:43 51.16063 -0.18028 203 ft 0 kts 78°
2026-04-17 10:54 51.16061 -0.18039 203 ft 2 kts 78°
2026-04-17 10:54 51.16058 -0.18065 216 ft 2 kts 79°
2026-04-17 10:54 51.16055 -0.18091 208 ft 2 kts 81°
2026-04-17 10:55 51.16053 -0.18117 212 ft 2 kts 87°
2026-04-17 10:55 51.16055 -0.18143 211 ft 2 kts 121°
2026-04-17 10:55 51.16065 -0.18155 206 ft 1 kts 168°
2026-04-17 10:55 51.16067 -0.18155 213 ft 0 kts 169°
2026-04-17 11:02 51.16053 -0.18151 211 ft 5 kts 169°
2026-04-17 11:02 51.16003 -0.18134 210 ft 9 kts 168°
2026-04-17 11:02 51.15931 -0.18109 207 ft 12 kts 168°
2026-04-17 11:03 51.15849 -0.18080 209 ft 12 kts 168°
2026-04-17 11:03 51.15769 -0.18052 203 ft 11 kts 167°
2026-04-17 11:03 51.15712 -0.18024 207 ft 8 kts 144°
2026-04-17 11:03 51.15701 -0.17946 203 ft 8 kts 79°
2026-04-17 11:04 51.15713 -0.17860 203 ft 8 kts 77°
2026-04-17 11:04 51.15725 -0.17774 206 ft 8 kts 77°
2026-04-17 11:04 51.15738 -0.17677 211 ft 10 kts 78°
2026-04-17 11:04 51.15754 -0.17561 207 ft 12 kts 80°
2026-04-17 11:05 51.15734 -0.17507 208 ft 5 kts 156°
2026-04-17 11:05 51.15691 -0.17488 208 ft 8 kts 165°
2026-04-17 11:05 51.15632 -0.17465 208 ft 10 kts 166°
2026-04-17 11:05 51.15558 -0.17445 208 ft 12 kts 169°
2026-04-17 11:06 51.15474 -0.17415 203 ft 13 kts 157°
2026-04-17 11:06 51.15388 -0.17382 212 ft 13 kts 169°
2026-04-17 11:06 51.15325 -0.17361 203 ft 4 kts 166°
2026-04-17 11:06 51.15317 -0.17358 203 ft 1 kts 166°
2026-04-17 11:07 51.15300 -0.17351 211 ft 4 kts 166°
2026-04-17 11:07 51.15268 -0.17336 207 ft 6 kts 151°
2026-04-17 11:07 51.15242 -0.17280 209 ft 8 kts 101°
2026-04-17 11:07 51.15253 -0.17184 203 ft 10 kts 76°
2026-04-17 11:08 51.15271 -0.17059 203 ft 13 kts 79°
2026-04-17 11:08 51.15287 -0.16934 203 ft 4 kts 78°
2026-04-17 11:08 51.15289 -0.16920 212 ft 3 kts 78°
2026-04-17 11:08 51.15289 -0.16917 211 ft 0 kts 78°
2026-04-17 11:10 51.15292 -0.16897 212 ft 3 kts 78°
2026-04-17 11:11 51.15299 -0.16847 203 ft 6 kts 78°
2026-04-17 11:11 51.15310 -0.16764 205 ft 8 kts 78°
2026-04-17 11:11 51.15293 -0.16679 205 ft 9 kts 145°
2026-04-17 11:11 51.15231 -0.16647 212 ft 9 kts 166°
2026-04-17 11:12 51.15161 -0.16638 204 ft 11 kts 208°
2026-04-17 11:12 51.15129 -0.16756 212 ft 13 kts 257°
2026-04-17 11:12 51.15103 -0.16935 202 ft 24 kts 258°
2026-04-17 11:12 51.15050 -0.17331 206 ft 62 kts 258°
2026-04-17 11:13 51.14886 -0.18503 204 ft 152 kts 256°
2026-04-17 11:13 51.14620 -0.20379 666 ft 195 kts 258°
2026-04-17 11:13 51.14425 -0.22703 1391 ft 219 kts 259°
2026-04-17 11:13 51.14157 -0.25064 2701 ft 214 kts 254°
2026-04-17 11:14 51.13849 -0.27321 3655 ft 213 kts 260°
2026-04-17 11:14 51.14056 -0.29646 3960 ft 219 kts 290°
2026-04-17 11:14 51.15037 -0.31592 3990 ft 236 kts 322°
2026-04-17 11:14 51.16602 -0.32445 4005 ft 245 kts 355°
2026-04-17 11:15 51.18247 -0.31770 3996 ft 250 kts 32°
2026-04-17 11:15 51.19373 -0.29716 3997 ft 248 kts 70°
2026-04-17 11:15 51.19740 -0.27079 4035 ft 245 kts 84°
2026-04-17 11:15 51.19986 -0.24353 4021 ft 251 kts 85°
2026-04-17 11:16 51.20241 -0.21592 4016 ft 251 kts 84°
2026-04-17 11:16 51.20523 -0.18892 4237 ft 246 kts 82°
2026-04-17 11:16 51.20865 -0.16194 4487 ft 250 kts 81°
2026-04-17 11:16 51.21231 -0.13431 4689 ft 265 kts 81°
2026-04-17 11:17 51.21627 -0.10422 5047 ft 285 kts 80°
2026-04-17 11:17 51.22037 -0.07317 4997 ft 285 kts 79°
2026-04-17 11:17 51.22821 -0.04420 4994 ft 287 kts 52°
2026-04-17 11:17 51.24327 -0.02377 5070 ft 283 kts 22°
2026-04-17 11:18 51.26198 -0.01732 5625 ft 275 kts 353°
2026-04-17 11:18 51.28078 -0.02225 6176 ft 276 kts 342°
2026-04-17 11:18 51.29931 -0.02969 6791 ft 272 kts 341°
2026-04-17 11:18 51.31775 -0.03742 7541 ft 276 kts 341°
2026-04-17 11:19 51.33639 -0.04524 8294 ft 279 kts 341°
2026-04-17 11:19 51.35528 -0.05313 9055 ft 282 kts 341°
2026-04-17 11:19 51.37433 -0.06104 9851 ft 288 kts 341°
2026-04-17 11:19 51.39409 -0.06919 10603 ft 294 kts 341°
2026-04-17 11:20 51.41410 -0.07739 11344 ft 300 kts 341°
2026-04-17 11:20 51.43450 -0.08567 12108 ft 305 kts 341°
2026-04-17 11:20 51.45524 -0.09403 12866 ft 310 kts 341°
2026-04-17 11:20 51.47626 -0.10242 13661 ft 313 kts 341°
2026-04-17 11:21 51.49753 -0.11081 14403 ft 316 kts 341°
2026-04-17 11:21 51.51896 -0.11920 15124 ft 318 kts 341°
2026-04-17 11:21 51.54050 -0.12758 15852 ft 320 kts 341°
2026-04-17 11:21 51.56222 -0.13601 16548 ft 322 kts 341°
2026-04-17 11:22 51.58404 -0.14444 17320 ft 323 kts 341°
2026-04-17 11:22 51.60589 -0.15282 18096 ft 323 kts 341°
2026-04-17 11:22 51.62782 -0.16116 18761 ft 326 kts 341°
2026-04-17 11:22 51.65040 -0.16978 19043 ft 342 kts 340°
2026-04-17 11:23 51.67398 -0.17888 19069 ft 350 kts 341°
2026-04-17 11:23 51.69767 -0.18799 19081 ft 350 kts 341°
2026-04-17 11:23 51.72138 -0.19709 19089 ft 351 kts 341°
2026-04-17 11:23 51.74516 -0.20626 19095 ft 352 kts 341°
2026-04-17 11:24 51.76868 -0.21535 19091 ft 351 kts 341°
2026-04-17 11:24 51.79237 -0.22449 19088 ft 350 kts 341°
2026-04-17 11:24 51.81605 -0.23360 19201 ft 351 kts 341°
2026-04-17 11:24 51.83998 -0.24273 19186 ft 354 kts 341°
2026-04-17 11:25 51.86396 -0.25187 19183 ft 354 kts 341°
2026-04-17 11:25 51.88015 -0.25805 19178 ft 354 kts 341°
2026-04-17 11:25 51.91178 -0.27022 19278 ft 349 kts 339°
2026-04-17 11:25 51.92737 -0.27815 19456 ft 346 kts 333°
2026-04-17 11:26 51.95719 -0.29713 19794 ft 351 kts 331°
2026-04-17 11:26 51.97251 -0.30729 19957 ft 352 kts 331°
2026-04-17 11:26 52.00231 -0.32759 20272 ft 351 kts 329°
2026-04-17 11:26 52.01702 -0.33846 20434 ft 350 kts 328°
2026-04-17 11:27 52.03911 -0.35514 20668 ft 351 kts 328°
2026-04-17 11:27 52.06125 -0.37197 20919 ft 352 kts 328°
2026-04-17 11:27 52.08364 -0.38906 20877 ft 358 kts 328°
2026-04-17 11:27 52.10617 -0.40628 20856 ft 355 kts 328°
2026-04-17 11:28 52.12845 -0.42325 20846 ft 353 kts 328°
2026-04-17 11:28 52.15048 -0.44066 20851 ft 351 kts 324°
2026-04-17 11:28 52.17156 -0.46049 20856 ft 348 kts 320°
2026-04-17 11:28 52.19189 -0.48195 20858 ft 348 kts 319°
2026-04-17 11:29 52.21211 -0.50379 20859 ft 348 kts 319°
2026-04-17 11:29 52.23230 -0.52575 20861 ft 349 kts 319°
2026-04-17 11:29 52.25241 -0.54767 21009 ft 343 kts 319°
2026-04-17 11:29 52.27218 -0.56911 21619 ft 344 kts 319°
2026-04-17 11:30 52.29236 -0.59102 22075 ft 355 kts 318°
2026-04-17 11:30 52.31327 -0.61383 21775 ft 365 kts 319°
2026-04-17 11:30 52.33380 -0.63601 22310 ft 346 kts 319°
2026-04-17 11:30 52.35400 -0.65765 22813 ft 349 kts 318°
2026-04-17 11:31 52.37406 -0.68034 23384 ft 352 kts 316°
2026-04-17 11:31 52.39410 -0.70383 23878 ft 356 kts 316°
2026-04-17 11:31 52.41429 -0.72768 24352 ft 360 kts 315°
2026-04-17 11:31 52.43467 -0.75184 24832 ft 363 kts 315°
2026-04-17 11:32 52.45526 -0.77631 25314 ft 367 kts 315°
2026-04-17 11:32 52.47602 -0.80099 25805 ft 370 kts 315°
2026-04-17 11:32 52.49698 -0.82589 26289 ft 373 kts 315°
2026-04-17 11:32 52.51804 -0.85089 26796 ft 375 kts 315°
2026-04-17 11:33 52.53893 -0.87558 27311 ft 376 kts 315°
2026-04-17 11:33 52.56024 -0.90067 27836 ft 377 kts 315°
2026-04-17 11:33 52.58163 -0.92575 28363 ft 377 kts 315°
2026-04-17 11:33 52.60304 -0.95077 28881 ft 377 kts 315°
2026-04-17 11:34 52.62443 -0.97568 29421 ft 377 kts 315°
2026-04-17 11:34 52.64570 -1.00036 29976 ft 376 kts 315°
2026-04-17 11:34 52.66653 -1.02408 30486 ft 377 kts 316°
2026-04-17 11:34 52.68924 -1.04614 30971 ft 380 kts 321°
2026-04-17 11:35 52.71258 -1.06663 31456 ft 379 kts 322°
2026-04-17 11:35 52.73592 -1.08656 31966 ft 377 kts 322°
2026-04-17 11:35 52.75916 -1.10620 32471 ft 374 kts 322°
2026-04-17 11:35 52.78224 -1.12545 33006 ft 370 kts 322°
2026-04-17 11:36 52.80515 -1.14432 33531 ft 366 kts 322°
2026-04-17 11:36 52.82796 -1.16295 33802 ft 370 kts 322°
2026-04-17 11:36 52.85141 -1.18235 33687 ft 382 kts 322°
2026-04-17 11:36 52.87545 -1.20247 33677 ft 392 kts 322°
2026-04-17 11:37 52.92511 -1.24475 33811 ft 409 kts 322°
2026-04-17 11:37 52.97649 -1.28922 33939 ft 424 kts 322°
2026-04-17 11:38 53.02946 -1.33568 34079 ft 438 kts 322°
2026-04-17 11:38 53.08407 -1.38389 34188 ft 450 kts 322°
2026-04-17 11:39 53.13942 -1.43354 34361 ft 457 kts 320°
2026-04-17 11:39 53.19293 -1.49078 34351 ft 456 kts 317°
2026-04-17 11:40 53.24511 -1.54957 34380 ft 450 kts 316°
2026-04-17 11:40 53.29746 -1.60811 34351 ft 455 kts 316°
2026-04-17 11:41 53.35030 -1.66708 34335 ft 458 kts 316°
2026-04-17 11:41 53.40350 -1.72659 34342 ft 461 kts 316°
2026-04-17 11:42 53.45690 -1.78651 34328 ft 462 kts 316°
2026-04-17 11:42 53.49265 -1.82669 34320 ft 462 kts 316°